Lid_Strength_Index
3 3 3 4 4 5 7 10 11 6 7 10 13 12 10 8 9 9 9 11 12 12 12 13 14 14 12 10 10 12 11 14 15 12 11 12 14 14 14 16 16 16 15 14
3 3 3 4 4 5 7 11 11 6 7 13 13 11 10 9 10 9 10 11 11 12 13 14 12 12 9 10 10 11 11 14 16 14 13 13 14 13 14 14 13 16 16 14
3 3 4 4 5 5 7 10 10 8 8 11 12 12 11 10 7 9 9 9 11 13 13 13 12 11 8 8 10 4 7 15 14 13 13 12 12 11 12 13 14 14 14 13
3 3 4 4 5 5 8 10 11 10 11 10 10 10 10 10 11 8 8 10 12 13 14 13 12 11 10 9 6 10 11 13 14 13 12 11 12 11 12 13 13 13 12 13
3 3 3 5 5 5 8 10 10 10 11 10 11 11 12 11 10 10 10 10 10 9 13 12 12 12 12 10 11 13 13 13 13 13 10 10 12 11 11 11 11 12 12 12
3 3 3 4 5 6 10 10 10 10 10 10 11 11 10 10 9 8 7 8 9 10 9 9 9 10 10 9 9 12 13 12 12 14 12 11 14 11 10 10 10 10 13 10
4 3 3 3 4 6 10 10 11 11 11 9 9 8 8 9 8 10 8 7 9 7 5 6 7 9 10 10 10 11 14 12 14 14 13 17 11 9 8 10 9 9 10 9
4 4 4 3 3 4 9 10 11 11 12 9 8 8 8 8 8 9 8 7 6 5 8 10 11 11 11 11 12 13 13 12 14 15 16 13 11 9 10 10 10 8 9 8
4 3 4 4 3 3 9 10 10 11 12 11 7 8 8 10 11 10 8 5 5 7 10 11 14 14 13 13 11 13 12 12 12 15 16 17 11 9 7 8 12 8 8 8
4 4 4 3 3 3 8 10 9 11 10 9 8 9 9 7 10 10 9 8 8 8 11 12 13 13 11 14 14 12 15 12 13 15 15 13 9 8 7 13 11 8 7 7
4 4 4 4 3 4 7 9 8 9 10 11 8 6 7 7 8 11 8 9 9 10 13 13 13 14 13 13 12 13 14 14 14 14 16 15 8 8 10 8 8 7 7 7
4 4 4 4 4 3 6 11 8 6 11 11 9 7 7 6 5 7 8 9 9 8 11 11 12 14 12 13 15 11 13 13 13 12 12 9 8 7 7 6 7 7 7 6
4 4 4 4 4 4 4 7 8 11 13 12 11 10 8 8 6 4 8 8 6 8 7 9 11 13 11 14 13 13 10 9 12 11 9 9 8 7 7 5 6 5 5 7
4 4 4 4 4 4 4 7 9 9 12 14 12 7 7 6 7 6 4 5 4 5 6 9 11 12 9 12 11 12 10 10 11 11 9 8 7 6 6 6 5 6 6 7
4 4 3 3 3 3 5 6 7 7 12 14 12 10 8 8 8 6 5 5 8 7 8 10 11 9 10 10 10 12 9 10 11 12 8 9 8 6 5 6 6 7 8 9
3 3 3 3 2 2 9 12 8 7 7 13 14 9 7 6 8 8 6 6 8 6 8 9 8 7 9 12 13 9 8 7 7 9 7 6 6 5 5 6 7 6 8 9
2 2 2 1 1 4 8 10 7 6 7 10 10 10 6 5 7 8 6 7 7 7 8 9 9 9 8 11 13 8 7 6 6 5 6 7 6 7 5 6 7 8 9 10
2 1 1 1 2 2 5 4 2 3 6 8 10 10 8 6 8 9 5 8 7 7 8 8 9 8 9 12 9 7 7 6 6 6 6 6 6 7 7 8 8 10 9 9
1 1 1 3 4 6 7 1 1 3 5 8 8 11 12 6 7 7 7 7 10 7 10 9 9 11 12 9 8 8 6 7 6 6 5 6 7 7 7 7 8 9 9 9
1 4 7 8 6 2 2 4 8 9 9 8 9 8 10 8 8 9 9 8 10 13 10 8 11 11 8 6 7 6 6 6 5 7 7 7 7 8 8 8 8 8 8 9
7 9 9 5 2 3 4 8 8 9 9 8 8 8 9 6 10 10 8 11 10 13 11 11 12 12 9 6 6 6 5 5 4 4 4 4 6 7 8 8 8 8 8 9
7 7 5 7 5 6 9 10 9 9 11 8 9 8 8 7 6 9 9 11 11 14 9 12 13 10 7 7 6 5 6 4 4 4 4 5 5 6 7 8 8 8 7 7
8 8 9 7 7 11 12 13 12 12 9 8 7 9 8 7 7 9 10 12 13 9 12 13 11 8 7 6 6 5 5 4 4 4 4 5 6 6 7 8 7 7 7 7
9 7 10 10 11 10 10 10 10 7 7 7 7 8 9 7 10 10 12 11 10 14 15 13 9 8 7 7 5 5 5 5 5 6 6 7 6 6 6 7 7 7 7 6
8 7 12 10 8 8 8 7 7 6 6 7 8 8 8 9 11 10 11 13 14 13 13 10 8 8 7 7 6 6 5 5 5 5 6 6 6 6 7 7 7 7 7 6
7 8 9 9 10 9 8 7 7 6 6 6 7 9 11 12 11 13 13 13 14 11 9 8 8 9 7 6 5 5 5 5 5 6 6 6 7 7 7 8 7 7 6 6
9 10 9 9 9 10 9 8 6 4 7 10 9 12 12 10 13 14 11 12 10 8 8 7 7 7 6 6 6 5 6 6 6 6 6 7 7 8 8 8 8 7 6 6